BAW913 EDDS-EGLL

Flight info

Callsign BAW913
Flight time 1h 21m
Altitude 24000
Route VESID2H VESID Y127 TUDGA/N0440F380 Y127 BANIM L608 LIRSU DCT DENUT L608 LOGAN
Aircraft A20N/M-SDE2E3FGHIRWXY/LB1

Departure

Time 2026-05-05 09:52
Airport Stuttgart Airport (EDDS)

Arrival

Time 2026-05-05 11:14
Airport London Heathrow Airport (EGLL)
Time Latitude Longitude Altitude Speed Heading
2026-05-05 09:31 48.68871 9.19289 1288 ft 0 kts 343°
2026-05-05 09:45 48.68863 9.19292 1285 ft 3 kts 343°
2026-05-05 09:45 48.68844 9.19301 1286 ft 3 kts 345°
2026-05-05 09:46 48.68827 9.19308 1290 ft 3 kts 348°
2026-05-05 09:46 48.68808 9.19310 1289 ft 3 kts 21°
2026-05-05 09:46 48.68793 9.19294 1287 ft 3 kts 61°
2026-05-05 09:46 48.68786 9.19270 1290 ft 2 kts 75°
2026-05-05 09:47 48.68784 9.19260 1290 ft 0 kts 75°
2026-05-05 09:49 48.68791 9.19296 1286 ft 6 kts 75°
2026-05-05 09:49 48.68808 9.19390 1290 ft 12 kts 75°
2026-05-05 09:49 48.68828 9.19496 1287 ft 11 kts 74°
2026-05-05 09:50 48.68854 9.19631 1286 ft 15 kts 73°
2026-05-05 09:50 48.68883 9.19776 1287 ft 12 kts 72°
2026-05-05 09:50 48.68881 9.19868 1285 ft 8 kts 131°
2026-05-05 09:50 48.68813 9.19920 1288 ft 11 kts 155°
2026-05-05 09:51 48.68747 9.19960 1288 ft 9 kts 163°
2026-05-05 09:51 48.68683 9.19988 1286 ft 13 kts 164°
2026-05-05 09:51 48.68598 9.20027 1289 ft 10 kts 149°
2026-05-05 09:51 48.68596 9.20132 1285 ft 18 kts 72°
2026-05-05 09:52 48.68725 9.20796 1287 ft 114 kts 75°
2026-05-05 09:52 48.69013 9.22328 1365 ft 179 kts 73°
2026-05-05 09:52 48.69345 9.24116 2398 ft 174 kts 74°
2026-05-05 09:52 48.69646 9.25926 3400 ft 185 kts 76°
2026-05-05 09:53 48.69967 9.27964 4231 ft 212 kts 77°
2026-05-05 09:53 48.70349 9.30254 5221 ft 238 kts 77°
2026-05-05 09:53 48.70822 9.32755 6238 ft 262 kts 73°
2026-05-05 09:53 48.71420 9.35474 7332 ft 281 kts 72°
2026-05-05 09:54 48.72090 9.38302 8721 ft 286 kts 72°
2026-05-05 09:54 48.72793 9.41130 10244 ft 292 kts 65°
2026-05-05 09:54 48.74116 9.43617 11093 ft 321 kts 40°
2026-05-05 09:54 48.76169 9.45222 11879 ft 346 kts 16°
2026-05-05 09:55 48.78621 9.45565 12746 ft 365 kts 354°
2026-05-05 09:55 48.81070 9.44504 13786 ft 372 kts 332°
2026-05-05 09:55 48.83205 9.42323 14846 ft 376 kts 319°
2026-05-05 09:55 48.85216 9.39753 15998 ft 380 kts 319°
2026-05-05 09:56 48.87368 9.37389 17158 ft 386 kts 324°
2026-05-05 09:56 48.89482 9.34852 18186 ft 390 kts 312°
2026-05-05 09:56 48.91093 9.31561 19126 ft 389 kts 295°
2026-05-05 09:56 48.91997 9.27714 20094 ft 387 kts 278°
2026-05-05 09:57 48.92468 9.23652 21025 ft 392 kts 276°
2026-05-05 09:57 48.92900 9.19535 21980 ft 397 kts 276°
2026-05-05 09:57 48.93324 9.15416 22862 ft 403 kts 276°
2026-05-05 09:57 48.93764 9.11175 23556 ft 408 kts 276°
2026-05-05 09:58 48.94213 9.06906 23779 ft 409 kts 276°
2026-05-05 09:58 48.94664 9.02630 23858 ft 410 kts 276°
2026-05-05 09:58 48.95240 8.98384 23863 ft 413 kts 285°
2026-05-05 09:58 48.96464 8.94421 23865 ft 416 kts 300°
2026-05-05 09:59 48.98337 8.91038 23862 ft 421 kts 315°
2026-05-05 09:59 49.00741 8.88469 23863 ft 426 kts 330°
2026-05-05 09:59 49.03430 8.86715 23867 ft 427 kts 338°
2026-05-05 09:59 49.06231 8.85178 23869 ft 427 kts 339°
2026-05-05 10:00 49.09031 8.83658 23875 ft 427 kts 339°
2026-05-05 10:00 49.11821 8.82086 23873 ft 427 kts 338°
2026-05-05 10:00 49.14633 8.80617 23860 ft 428 kts 344°
2026-05-05 10:00 49.17568 8.79830 23870 ft 429 kts 354°
2026-05-05 10:01 49.20549 8.79812 23870 ft 427 kts
2026-05-05 10:01 49.23489 8.80234 23873 ft 424 kts
2026-05-05 10:01 49.26437 8.80645 23871 ft 426 kts
2026-05-05 10:01 49.29345 8.81039 23869 ft 425 kts
2026-05-05 10:02 49.32293 8.81435 23873 ft 425 kts
2026-05-05 10:02 49.35245 8.81833 23871 ft 425 kts
2026-05-05 10:02 49.38189 8.82232 23871 ft 425 kts
2026-05-05 10:02 49.41138 8.82634 23875 ft 425 kts
2026-05-05 10:03 49.44080 8.83038 23878 ft 424 kts
2026-05-05 10:03 49.47025 8.83442 23874 ft 425 kts
2026-05-05 10:03 49.49971 8.83847 23873 ft 425 kts
2026-05-05 10:03 49.52913 8.84252 23871 ft 425 kts
2026-05-05 10:04 49.55816 8.84157 24057 ft 423 kts 349°
2026-05-05 10:04 49.58590 8.82831 25018 ft 413 kts 333°
2026-05-05 10:04 49.60957 8.80531 26488 ft 392 kts 317°
2026-05-05 10:04 49.62798 8.77609 28029 ft 370 kts 306°
2026-05-05 10:05 49.64415 8.74660 29593 ft 350 kts 305°
2026-05-05 10:05 49.65941 8.71872 30981 ft 328 kts 304°
2026-05-05 10:05 49.67362 8.69274 32306 ft 308 kts 302°
2026-05-05 10:05 49.68729 8.66751 32991 ft 308 kts 301°
2026-05-05 10:06 49.70105 8.64175 33402 ft 314 kts 301°
2026-05-05 10:06 49.71500 8.61569 33923 ft 316 kts 302°
2026-05-05 10:06 49.73044 8.59134 34320 ft 326 kts 308°
2026-05-05 10:06 49.74712 8.56728 34696 ft 330 kts 309°
2026-05-05 10:07 49.76396 8.54289 35089 ft 333 kts 309°
2026-05-05 10:07 49.78096 8.51819 35443 ft 337 kts 309°
2026-05-05 10:07 49.79811 8.49321 35815 ft 340 kts 309°
2026-05-05 10:07 49.81541 8.46798 36184 ft 344 kts 309°
2026-05-05 10:08 49.83261 8.44205 36522 ft 344 kts 304°
2026-05-05 10:08 49.84684 8.41268 36873 ft 339 kts 294°
2026-05-05 10:08 49.85723 8.38012 37208 ft 335 kts 284°
2026-05-05 10:08 49.86441 8.34624 37496 ft 338 kts 281°
2026-05-05 10:09 49.87163 8.31139 37783 ft 343 kts 282°
2026-05-05 10:09 49.87910 8.27571 37865 ft 354 kts 282°
2026-05-05 10:09 49.88683 8.23882 37863 ft 366 kts 282°
2026-05-05 10:09 49.89484 8.20062 37864 ft 379 kts 282°
2026-05-05 10:10 49.90312 8.16104 37862 ft 392 kts 282°
2026-05-05 10:10 49.91166 8.12018 37876 ft 405 kts 283°
2026-05-05 10:10 49.92045 8.07801 37866 ft 417 kts 283°
2026-05-05 10:10 49.92947 8.03466 37867 ft 428 kts 283°
2026-05-05 10:11 49.94600 7.94515 37868 ft 428 kts 275°
2026-05-05 10:11 49.95359 7.85454 37864 ft 426 kts 272°
2026-05-05 10:12 49.96091 7.76345 37864 ft 426 kts 272°
2026-05-05 10:12 49.96818 7.67184 37862 ft 427 kts 272°
2026-05-05 10:13 49.97533 7.58042 37859 ft 426 kts 272°
2026-05-05 10:13 49.98235 7.48964 37875 ft 426 kts 272°
2026-05-05 10:14 49.98933 7.39830 37878 ft 426 kts 272°
2026-05-05 10:14 49.99625 7.30690 37879 ft 426 kts 272°
2026-05-05 10:15 50.00311 7.21531 37875 ft 427 kts 272°
2026-05-05 10:15 50.00991 7.12360 37873 ft 427 kts 272°
2026-05-05 10:16 50.01664 7.03178 37854 ft 428 kts 272°
2026-05-05 10:16 50.02418 6.94052 37849 ft 431 kts 278°
2026-05-05 10:17 50.04535 6.85235 37865 ft 442 kts 294°
2026-05-05 10:17 50.07540 6.76864 37861 ft 444 kts 294°
2026-05-05 10:18 50.10525 6.68457 37858 ft 443 kts 294°
2026-05-05 10:18 50.13479 6.60097 37855 ft 443 kts 294°
2026-05-05 10:19 50.16446 6.51677 37844 ft 443 kts 294°
2026-05-05 10:19 50.19418 6.43257 37831 ft 443 kts 295°
2026-05-05 10:20 50.22658 6.35038 37832 ft 445 kts 297°
2026-05-05 10:20 50.25952 6.26844 37843 ft 445 kts 297°
2026-05-05 10:21 50.29203 6.18615 37851 ft 445 kts 297°
2026-05-05 10:21 50.32409 6.10424 37858 ft 444 kts 297°
2026-05-05 10:22 50.35629 6.02170 37864 ft 444 kts 297°
2026-05-05 10:22 50.38843 5.93900 37861 ft 444 kts 297°
2026-05-05 10:23 50.42051 5.85628 37857 ft 444 kts 297°
2026-05-05 10:23 50.45229 5.77404 37859 ft 444 kts 297°
2026-05-05 10:24 50.48424 5.69108 37868 ft 444 kts 297°
2026-05-05 10:24 50.51613 5.60803 37877 ft 444 kts 297°
2026-05-05 10:25 50.54792 5.52495 37888 ft 443 kts 297°
2026-05-05 10:25 50.57959 5.44195 37881 ft 442 kts 297°
2026-05-05 10:26 50.61115 5.35899 37881 ft 441 kts 297°
2026-05-05 10:26 50.64263 5.27594 37880 ft 442 kts 297°
2026-05-05 10:27 50.67382 5.19339 37880 ft 441 kts 297°
2026-05-05 10:27 50.70515 5.11018 37887 ft 441 kts 297°
2026-05-05 10:28 50.73642 5.02688 37888 ft 441 kts 297°
2026-05-05 10:28 50.76764 4.94345 37887 ft 441 kts 297°
2026-05-05 10:29 50.79856 4.86055 37903 ft 441 kts 297°
2026-05-05 10:29 50.82961 4.77702 37901 ft 440 kts 297°
2026-05-05 10:30 50.86057 4.69349 37915 ft 440 kts 297°
2026-05-05 10:30 50.89146 4.60985 37917 ft 440 kts 297°
2026-05-05 10:31 50.92204 4.52678 37917 ft 439 kts 297°
2026-05-05 10:31 50.95276 4.44307 37912 ft 439 kts 297°
2026-05-05 10:32 50.98336 4.35945 37910 ft 438 kts 297°
2026-05-05 10:32 51.01393 4.27559 37901 ft 438 kts 296°
2026-05-05 10:33 51.04418 4.19233 37932 ft 438 kts 296°
2026-05-05 10:33 51.07451 4.10861 37914 ft 438 kts 296°
2026-05-05 10:34 51.10486 4.02454 37925 ft 438 kts 296°
2026-05-05 10:34 51.13515 3.94038 37906 ft 438 kts 296°
2026-05-05 10:35 51.16517 3.85667 37913 ft 438 kts 296°
2026-05-05 10:35 51.19535 3.77225 37904 ft 439 kts 296°
2026-05-05 10:36 51.22555 3.68757 37907 ft 439 kts 296°
2026-05-05 10:36 51.25608 3.60311 37914 ft 440 kts 297°
2026-05-05 10:37 51.28725 3.51966 37926 ft 440 kts 297°
2026-05-05 10:37 51.31854 3.43544 37930 ft 440 kts 297°
2026-05-05 10:38 51.34825 3.35000 37934 ft 438 kts 291°
2026-05-05 10:38 51.37061 3.25969 37928 ft 436 kts 288°
2026-05-05 10:39 51.39221 3.16889 37935 ft 436 kts 288°
2026-05-05 10:39 51.41356 3.07867 37934 ft 436 kts 288°
2026-05-05 10:40 51.43495 2.98778 37939 ft 436 kts 288°
2026-05-05 10:40 51.45627 2.89673 37938 ft 436 kts 288°
2026-05-05 10:41 51.47751 2.80561 37931 ft 436 kts 288°
2026-05-05 10:41 51.49869 2.71437 37935 ft 436 kts 288°
2026-05-05 10:42 51.51970 2.62351 37109 ft 434 kts 288°
2026-05-05 10:42 51.53005 2.57856 36195 ft 437 kts 287°
2026-05-05 10:42 51.54058 2.53275 35284 ft 438 kts 287°
2026-05-05 10:43 51.55110 2.48688 34456 ft 437 kts 287°
2026-05-05 10:43 51.56155 2.44121 33623 ft 435 kts 287°
2026-05-05 10:43 51.57197 2.39555 32505 ft 436 kts 288°
2026-05-05 10:43 51.58242 2.34964 31349 ft 439 kts 287°
2026-05-05 10:44 51.59294 2.30341 30173 ft 441 kts 287°
2026-05-05 10:44 51.60351 2.25694 28750 ft 445 kts 287°
2026-05-05 10:44 51.61418 2.20988 27216 ft 450 kts 288°
2026-05-05 10:44 51.62490 2.16253 26149 ft 447 kts 288°
2026-05-05 10:45 51.63527 2.11679 25575 ft 434 kts 288°
2026-05-05 10:45 51.64549 2.07156 25250 ft 415 kts 288°
2026-05-05 10:45 51.65505 2.02907 25072 ft 409 kts 287°
2026-05-05 10:45 51.66475 1.98571 24969 ft 412 kts 287°
2026-05-05 10:46 51.67442 1.94235 24966 ft 412 kts 287°
2026-05-05 10:46 51.68412 1.89873 24975 ft 415 kts 287°
2026-05-05 10:46 51.69388 1.85487 24972 ft 414 kts 287°
2026-05-05 10:46 51.70359 1.81115 24970 ft 414 kts 287°
2026-05-05 10:47 51.71329 1.76740 24970 ft 415 kts 287°
2026-05-05 10:47 51.72156 1.72309 24943 ft 411 kts 278°
2026-05-05 10:47 51.72362 1.67750 24460 ft 407 kts 267°
2026-05-05 10:47 51.72259 1.63155 23304 ft 414 kts 264°
2026-05-05 10:48 51.72088 1.58535 22113 ft 419 kts 265°
2026-05-05 10:48 51.71926 1.53903 21579 ft 406 kts 265°
2026-05-05 10:48 51.71793 1.49475 21353 ft 386 kts 265°
2026-05-05 10:48 51.71682 1.45258 21167 ft 367 kts 266°
2026-05-05 10:49 51.71584 1.41240 20993 ft 351 kts 265°
2026-05-05 10:49 51.71488 1.37364 20573 ft 343 kts 266°
2026-05-05 10:49 51.71393 1.33530 20030 ft 341 kts 266°
2026-05-05 10:49 51.71295 1.29724 19486 ft 339 kts 266°
2026-05-05 10:50 51.71201 1.25969 19215 ft 329 kts 266°
2026-05-05 10:50 51.71111 1.22369 19093 ft 314 kts 266°
2026-05-05 10:50 51.71053 1.20073 19021 ft 305 kts 266°
2026-05-05 10:50 51.70940 1.15635 18663 ft 296 kts 266°
2026-05-05 10:51 51.70850 1.12318 18260 ft 295 kts 266°
2026-05-05 10:51 51.70761 1.09018 17830 ft 294 kts 266°
2026-05-05 10:51 51.70672 1.05734 17397 ft 292 kts 267°
2026-05-05 10:51 51.70584 1.02470 16970 ft 291 kts 267°
2026-05-05 10:52 51.70496 0.99220 16547 ft 290 kts 267°
2026-05-05 10:52 51.70437 0.97079 16285 ft 288 kts 267°
2026-05-05 10:52 51.70309 0.93899 16060 ft 280 kts 263°
2026-05-05 10:52 51.70082 0.90782 16004 ft 282 kts 263°
2026-05-05 10:53 51.69793 0.86622 15925 ft 281 kts 263°
2026-05-05 10:53 51.69575 0.83478 15500 ft 285 kts 263°
2026-05-05 10:53 51.69425 0.81315 15090 ft 290 kts 263°
2026-05-05 10:53 51.69117 0.76931 14059 ft 306 kts 264°
2026-05-05 10:54 51.68955 0.74644 13501 ft 314 kts 264°
2026-05-05 10:54 51.68703 0.71090 12514 ft 325 kts 264°
2026-05-05 10:54 51.68443 0.67427 11532 ft 334 kts 264°
2026-05-05 10:54 51.68173 0.63657 10473 ft 344 kts 264°
2026-05-05 10:55 51.67895 0.59783 9349 ft 352 kts 264°
2026-05-05 10:55 51.67612 0.55884 8646 ft 346 kts 264°
2026-05-05 10:55 51.67337 0.52116 8282 ft 331 kts 264°
2026-05-05 10:55 51.67074 0.48541 8095 ft 312 kts 265°
2026-05-05 10:56 51.66831 0.45176 7991 ft 293 kts 264°
2026-05-05 10:56 51.66604 0.42075 7990 ft 273 kts 264°
2026-05-05 10:56 51.66391 0.39151 7988 ft 254 kts 264°
2026-05-05 10:56 51.66187 0.36379 7991 ft 251 kts 264°
2026-05-05 10:57 51.65981 0.33584 7983 ft 251 kts 264°
2026-05-05 10:57 51.65777 0.30806 7989 ft 249 kts 264°
2026-05-05 10:57 51.65569 0.28026 7973 ft 251 kts 264°
2026-05-05 10:57 51.65360 0.25242 7970 ft 251 kts 264°
2026-05-05 10:58 51.65153 0.22467 7972 ft 249 kts 264°
2026-05-05 10:58 51.64944 0.19693 7968 ft 250 kts 264°
2026-05-05 10:58 51.64734 0.16906 7973 ft 250 kts 264°
2026-05-05 10:58 51.64531 0.14172 7971 ft 249 kts 265°
2026-05-05 10:59 51.64376 0.11399 7971 ft 249 kts 266°
2026-05-05 10:59 51.64219 0.08612 7971 ft 251 kts 265°
2026-05-05 10:59 51.64061 0.05828 7966 ft 249 kts 266°
2026-05-05 10:59 51.63904 0.03049 7971 ft 251 kts 266°
2026-05-05 11:00 51.63738 0.00256 7965 ft 249 kts 266°
2026-05-05 11:00 51.63580 -0.02525 7779 ft 251 kts 266°
2026-05-05 11:00 51.63426 -0.05331 7387 ft 254 kts 266°
2026-05-05 11:00 51.63266 -0.08162 7103 ft 251 kts 265°
2026-05-05 11:01 51.63117 -0.10881 7010 ft 247 kts 266°
2026-05-05 11:01 51.62969 -0.13647 7000 ft 248 kts 266°
2026-05-05 11:01 51.62819 -0.16403 7001 ft 250 kts 266°
2026-05-05 11:01 51.62661 -0.19192 7001 ft 249 kts 265°
2026-05-05 11:02 51.62510 -0.21948 7001 ft 248 kts 266°
2026-05-05 11:02 51.62348 -0.24736 6999 ft 250 kts 266°
2026-05-05 11:02 51.62184 -0.27520 7000 ft 249 kts 265°
2026-05-05 11:02 51.62029 -0.30278 6999 ft 247 kts 266°
2026-05-05 11:03 51.61875 -0.33044 6974 ft 251 kts 266°
2026-05-05 11:03 51.61720 -0.35820 6972 ft 246 kts 265°
2026-05-05 11:03 51.61571 -0.38580 6974 ft 248 kts 266°
2026-05-05 11:03 51.61421 -0.41346 6972 ft 247 kts 266°
2026-05-05 11:04 51.61263 -0.44085 6976 ft 251 kts 265°
2026-05-05 11:04 51.61111 -0.46849 6972 ft 247 kts 266°
2026-05-05 11:04 51.60951 -0.49625 6971 ft 249 kts 266°
2026-05-05 11:04 51.60790 -0.52408 6973 ft 250 kts 266°
2026-05-05 11:05 51.60630 -0.55186 6970 ft 247 kts 266°
2026-05-05 11:05 51.60477 -0.57938 6974 ft 249 kts 266°
2026-05-05 11:05 51.60315 -0.60715 6974 ft 249 kts 265°
2026-05-05 11:05 51.60164 -0.63464 6977 ft 246 kts 265°
2026-05-05 11:06 51.60014 -0.66216 6977 ft 248 kts 266°
2026-05-05 11:06 51.59856 -0.69001 6905 ft 251 kts 265°
2026-05-05 11:06 51.59695 -0.71796 6649 ft 251 kts 265°
2026-05-05 11:06 51.59534 -0.74593 6103 ft 260 kts 265°
2026-05-05 11:07 51.59358 -0.77488 5791 ft 256 kts 265°
2026-05-05 11:07 51.59179 -0.80299 5570 ft 251 kts 263°
2026-05-05 11:07 51.58623 -0.82890 5338 ft 247 kts 236°
2026-05-05 11:07 51.57363 -0.84703 5020 ft 245 kts 204°
2026-05-05 11:08 51.55733 -0.85280 4752 ft 240 kts 181°
2026-05-05 11:08 51.54053 -0.85414 4345 ft 244 kts 180°
2026-05-05 11:08 51.52360 -0.85552 4045 ft 242 kts 181°
2026-05-05 11:08 51.50683 -0.85656 3736 ft 241 kts 179°
2026-05-05 11:09 51.49098 -0.85090 3366 ft 238 kts 148°
2026-05-05 11:09 51.47937 -0.83303 3084 ft 228 kts 114°
2026-05-05 11:09 51.47594 -0.80878 3009 ft 227 kts 89°
2026-05-05 11:09 51.47626 -0.78380 3005 ft 223 kts 84°
2026-05-05 11:10 51.47649 -0.75908 3003 ft 221 kts 86°
2026-05-05 11:10 51.47659 -0.73470 3002 ft 214 kts 86°
2026-05-05 11:10 51.47667 -0.71143 2916 ft 206 kts 86°
2026-05-05 11:10 51.47677 -0.68835 2637 ft 209 kts 86°
2026-05-05 11:11 51.47684 -0.66526 2351 ft 211 kts 86°
2026-05-05 11:11 51.47692 -0.64152 2044 ft 213 kts 86°
2026-05-05 11:11 51.47701 -0.61822 1754 ft 201 kts 87°
2026-05-05 11:11 51.47706 -0.59692 1478 ft 182 kts 86°
2026-05-05 11:12 51.47714 -0.57750 1262 ft 165 kts 86°
2026-05-05 11:12 51.47718 -0.56021 1050 ft 146 kts 85°
2026-05-05 11:12 51.47724 -0.54477 848 ft 130 kts 84°
2026-05-05 11:12 51.47734 -0.53080 638 ft 121 kts 85°
2026-05-05 11:13 51.47735 -0.51765 515 ft 123 kts 85°
2026-05-05 11:13 51.47742 -0.50416 328 ft 119 kts 87°
2026-05-05 11:13 51.47744 -0.49117 196 ft 119 kts 85°
2026-05-05 11:13 51.47750 -0.47802 100 ft 114 kts 85°
2026-05-05 11:14 51.47757 -0.46798 91 ft 50 kts 91°
2026-05-05 11:14 51.47758 -0.46345 89 ft 33 kts 90°
2026-05-05 11:14 51.47700 -0.46138 88 ft 14 kts 145°
2026-05-05 11:14 51.47626 -0.46057 86 ft 12 kts 147°
2026-05-05 11:15 51.47608 -0.46062 85 ft 2 kts 226°
2026-05-05 11:15 51.47593 -0.46097 88 ft 0 kts 256°
2026-05-05 11:15 51.47593 -0.46113 88 ft 3 kts 267°
2026-05-05 11:15 51.47593 -0.46193 87 ft 10 kts 271°
2026-05-05 11:16 51.47595 -0.46310 91 ft 10 kts 271°
2026-05-05 11:16 51.47595 -0.46422 89 ft 13 kts 270°
2026-05-05 11:16 51.47592 -0.46597 89 ft 16 kts 271°
2026-05-05 11:16 51.47592 -0.46756 90 ft 15 kts 270°
2026-05-05 11:17 51.47588 -0.46909 89 ft 15 kts 262°
2026-05-05 11:17 51.47582 -0.47065 90 ft 16 kts 269°
2026-05-05 11:17 51.47582 -0.47251 90 ft 16 kts 269°
2026-05-05 11:17 51.47582 -0.47455 89 ft 21 kts 270°
2026-05-05 11:18 51.47581 -0.47649 88 ft 16 kts 269°
2026-05-05 11:18 51.47580 -0.47820 88 ft 18 kts 269°
2026-05-05 11:18 51.47578 -0.48011 90 ft 18 kts 270°
2026-05-05 11:18 51.47577 -0.48191 91 ft 16 kts 270°
2026-05-05 11:19 51.47577 -0.48368 90 ft 16 kts 270°
2026-05-05 11:19 51.47529 -0.48475 87 ft 11 kts 176°
2026-05-05 11:19 51.47429 -0.48475 85 ft 16 kts 181°
2026-05-05 11:19 51.47333 -0.48477 85 ft 13 kts 180°
2026-05-05 11:20 51.47301 -0.48477 85 ft 1 kts 179°
2026-05-05 11:20 51.47292 -0.48477 85 ft 2 kts 181°
2026-05-05 11:20 51.47275 -0.48500 88 ft 4 kts 243°
2026-05-05 11:20 51.47271 -0.48544 86 ft 2 kts 267°
2026-05-05 11:21 51.47271 -0.48571 86 ft 2 kts 271°
2026-05-05 11:21 51.47271 -0.48574 86 ft 0 kts 271°